Climatologie pour Saint-Brevin les Pins
Jour • Résumé pour juillet 8, 2017 Système :  Métrique    Anglais   Mixte
« - 1 jour
+ 1 jour »
Jour Semaine Mois Année Personnalisé
  Maximum : Minimum : Moyenne :
Température sous abri : -17.8 °C -8.6 °C -4.2 °C
Point de rosée : -17.8 °C -10.8 °C -9 °C
Humidité : Humidity % 38 % 61 %
Vitesse du vent : 0 km/h 0 km/h 8.4 km/h
Rafale : 0 km/h - -
Direction :- - East
Pression : 0 hPa 34313.7 hPa -
Précipitations : 0 mm    
Historical Graphs
 
 
Tableau de données pour juillet 8, 2017
Heure Tempé Pt rosée Pression Vent Vitesse Rafale Humidité Taux pluie (/hr) Soleil
-17.8 °C -17.8 °C 0 hPa Calm     Humidity % 0 mm SolarRadiationWatts/m^2 W/m2 Conditions
00:00 -6.2 °C -8.7 °C 34476.3 hPa North 10.3 km/h 18.2 km/h 76 % 0 mm 0 W/m2
00:05 -6.3 °C -8.7 °C 34476.3 hPa North 12.9 km/h 18.2 km/h 76 % 0 mm 0 W/m2
00:10 -6.2 °C -8.8 °C 34476.3 hPa NNW 5.1 km/h 20.8 km/h 74 % 0 mm 0 W/m2
00:15 -6.2 °C -9.1 °C 34476.3 hPa North 7.7 km/h 20.8 km/h 72 % 0 mm 0 W/m2
00:20 -6.1 °C -9.1 °C 34476.3 hPa NNE 2.6 km/h 18.2 km/h 71 % 0 mm 0 W/m2
00:25 -6.2 °C -9.2 °C 34476.3 hPa NNE 5.1 km/h 20.8 km/h 71 % 0 mm 0 W/m2
00:30 -6.2 °C -9.2 °C 34476.3 hPa NE 5.1 km/h 20.8 km/h 71 % 0 mm 0 W/m2
00:35 -6.2 °C -9.2 °C 34476.3 hPa NNE 2.6 km/h 15.6 km/h 71 % 0 mm 0 W/m2
00:40 -6.3 °C -9.3 °C 34476.3 hPa NE 7.7 km/h 15.6 km/h 71 % 0 mm 0 W/m2
00:45 -6.5 °C -9.4 °C 34486.4 hPa NE 2.6 km/h 15.6 km/h 72 % 0 mm 0 W/m2
00:50 -6.5 °C -9.4 °C 34476.3 hPa NNE 2.6 km/h 15.6 km/h 72 % 0 mm 0 W/m2
00:55 -6.6 °C -9.4 °C 34476.3 hPa NE 2.6 km/h 18.2 km/h 72 % 0 mm 0 W/m2
01:00 -6.6 °C -9.4 °C 34476.3 hPa NNE 7.7 km/h 18.2 km/h 72 % 0 mm 0 W/m2
01:05 -6.6 °C -9.5 °C 34476.3 hPa NNE 7.7 km/h 15.6 km/h 72 % 0 mm 0 W/m2
01:10 -6.6 °C -9.5 °C 34486.4 hPa NE 7.7 km/h 18.2 km/h 72 % 0 mm 0 W/m2
01:15 -6.7 °C -9.7 °C 34476.3 hPa NW 2.6 km/h 18.2 km/h 71 % 0 mm 0 W/m2
01:20 -6.7 °C -9.8 °C 34476.3 hPa NNE 2.6 km/h 18.2 km/h 70 % 0 mm 0 W/m2
01:25 -6.7 °C -9.8 °C 34476.3 hPa NE 12.9 km/h 18.2 km/h 70 % 0 mm 0 W/m2
01:30 -6.7 °C -9.8 °C 34476.3 hPa NE 2.6 km/h 15.6 km/h 70 % 0 mm 0 W/m2
01:35 -6.8 °C -9.8 °C 34476.3 hPa NE 10.3 km/h 18.2 km/h 71 % 0 mm 0 W/m2
01:40 -6.8 °C -9.8 °C 34476.3 hPa NE 2.6 km/h 18.2 km/h 71 % 0 mm 0 W/m2
01:45 -6.9 °C -9.9 °C 34476.3 hPa NNE 2.6 km/h 15.6 km/h 71 % 0 mm 0 W/m2
01:50 -6.9 °C -9.9 °C 34476.3 hPa NNE 10.3 km/h 15.6 km/h 71 % 0 mm 0 W/m2
01:55 -6.9 °C -9.8 °C 34476.3 hPa North 5.1 km/h 15.6 km/h 72 % 0 mm 0 W/m2
02:00 -7.1 °C -9.9 °C 34476.3 hPa NNE 5.1 km/h 15.6 km/h 73 % 0 mm 0 W/m2
02:05 -7.3 °C -9.9 °C 34462.7 hPa NE 2.6 km/h 12.9 km/h 74 % 0 mm 0 W/m2
02:15 -7.3 °C -9.8 °C 34462.7 hPa NNE 5.1 km/h 15.6 km/h 75 % 0 mm 0 W/m2
02:20 -7.4 °C -9.8 °C 34462.7 hPa NNE 7.7 km/h 15.6 km/h 76 % 0 mm 0 W/m2
02:25 -7.4 °C -9.8 °C 34462.7 hPa NNE 5.1 km/h 15.6 km/h 76 % 0 mm 0 W/m2
02:30 -7.3 °C -9.8 °C 34462.7 hPa NNE 15.6 km/h 18.2 km/h 75 % 0 mm 0 W/m2
02:35 -7.2 °C -9.7 °C 34462.7 hPa North 5.1 km/h 20.8 km/h 75 % 0 mm 0 W/m2
02:40 -7.3 °C -9.8 °C 34462.7 hPa North 7.7 km/h 20.8 km/h 75 % 0 mm 0 W/m2
02:45 -7.2 °C -9.8 °C 34462.7 hPa ENE 20.8 km/h 25.9 km/h 74 % 0 mm 0 W/m2
02:50 -7.3 °C -9.9 °C 34462.7 hPa NNE 7.7 km/h 25.9 km/h 74 % 0 mm 0 W/m2
02:55 -7.3 °C -10 °C 34462.7 hPa North 5.1 km/h 20.8 km/h 74 % 0 mm 0 W/m2
03:00 -7.3 °C -10.1 °C 34462.7 hPa NE 2.6 km/h 18.2 km/h 73 % 0 mm 0 W/m2
03:05 -7.4 °C -10.2 °C 34462.7 hPa NE 7.7 km/h 20.8 km/h 73 % 0 mm 0 W/m2
03:10 -7.5 °C -10.2 °C 34462.7 hPa NE 5.1 km/h 20.8 km/h 73 % 0 mm 0 W/m2
03:15 -7.6 °C -10.2 °C 34462.7 hPa NNE 5.1 km/h 18.2 km/h 74 % 0 mm 0 W/m2
03:20 -7.7 °C -10.3 °C 34462.7 hPa NE 7.7 km/h 18.2 km/h 74 % 0 mm 0 W/m2
03:25 -7.7 °C -10.3 °C 34462.7 hPa Calm   18.2 km/h 74 % 0 mm 0 W/m2
03:30 -7.7 °C -10.4 °C 34462.7 hPa NE 5.1 km/h 18.2 km/h 74 % 0 mm 0 W/m2
03:35 -7.8 °C -10.4 °C 34462.7 hPa NE 10.3 km/h 18.2 km/h 74 % 0 mm 0 W/m2
03:40 -7.8 °C -10.4 °C 34462.7 hPa NE 7.7 km/h 15.6 km/h 74 % 0 mm 0 W/m2
03:45 -7.9 °C -10.5 °C 34462.7 hPa NNE 7.7 km/h 18.2 km/h 74 % 0 mm 0 W/m2
03:50 -7.9 °C -10.5 °C 34462.7 hPa North 10.3 km/h 18.2 km/h 74 % 0 mm 0 W/m2
03:55 -7.9 °C -10.6 °C 34462.7 hPa North 15.6 km/h 18.2 km/h 73 % 0 mm 0 W/m2
04:00 -7.9 °C -10.6 °C 34462.7 hPa NE 10.3 km/h 18.2 km/h 74 % 0 mm 0 W/m2
04:05 -8 °C -10.6 °C 34462.7 hPa NE 7.7 km/h 18.2 km/h 74 % 0 mm 0 W/m2
04:10 -8.1 °C -10.7 °C 34462.7 hPa NE 7.7 km/h 18.2 km/h 74 % 0 mm 0 W/m2
04:15 -8.1 °C -10.7 °C 34452.6 hPa NE 5.1 km/h 20.8 km/h 74 % 0 mm 0 W/m2
04:20 -8.1 °C -10.6 °C 34452.6 hPa NNE 7.7 km/h 20.8 km/h 75 % 0 mm 0 W/m2
04:25 -8.1 °C -10.7 °C 34452.6 hPa ENE 12.9 km/h 18.2 km/h 74 % 0 mm 0 W/m2
04:30 -8.2 °C -10.6 °C 34452.6 hPa NE 7.7 km/h 20.8 km/h 75 % 0 mm 0 W/m2
04:35 -8.2 °C -10.7 °C 34452.6 hPa NE 10.3 km/h 20.8 km/h 75 % 0 mm 0 W/m2
04:40 -8.2 °C -10.7 °C 34452.6 hPa North 5.1 km/h 18.2 km/h 75 % 0 mm 0 W/m2
04:45 -8.2 °C -10.7 °C 34452.6 hPa NE 7.7 km/h 20.8 km/h 75 % 0 mm 0 W/m2
04:50 -8.2 °C -10.7 °C 34452.6 hPa NE 15.6 km/h 20.8 km/h 75 % 0 mm 0 W/m2
04:55 -8.3 °C -10.8 °C 34452.6 hPa NNE 7.7 km/h 18.2 km/h 75 % 0 mm 0 W/m2
05:00 -8.3 °C -10.7 °C 34452.6 hPa NE 15.6 km/h 18.2 km/h 76 % 0 mm 0 W/m2
05:05 -8.3 °C -10.7 °C 34452.6 hPa Calm   18.2 km/h 76 % 0 mm 0 W/m2
05:10 -8.4 °C -10.7 °C 34452.6 hPa NE 5.1 km/h 18.2 km/h 77 % 0 mm 0 W/m2
05:20 -8.4 °C -10.7 °C 34452.6 hPa Calm   20.8 km/h 77 % 0 mm 0 W/m2
05:25 -8.5 °C -10.7 °C 34452.6 hPa NNE 10.3 km/h 18.2 km/h 78 % 0 mm 0 W/m2
05:30 -8.5 °C -10.7 °C 34452.6 hPa NNE 5.1 km/h 25.9 km/h 78 % 0 mm 0 W/m2
05:35 -8.5 °C -10.6 °C 34452.6 hPa NE 5.1 km/h 25.9 km/h 79 % 0 mm 0 W/m2
05:40 -8.5 °C -10.4 °C 34452.6 hPa ENE 2.6 km/h 25.9 km/h 80 % 0 mm 0 W/m2
05:45 -8.5 °C -10.4 °C 34452.6 hPa Calm   20.8 km/h 80 % 0 mm 0 W/m2
05:50 -8.5 °C -10.4 °C 34452.6 hPa NE 12.9 km/h 20.8 km/h 80 % 0 mm 0 W/m2
05:55 -8.5 °C -10.3 °C 34452.6 hPa NE 5.1 km/h 25.9 km/h 81 % 0 mm 0 W/m2
06:00 -8.5 °C -10.3 °C 34452.6 hPa NE 12.9 km/h 25.9 km/h 81 % 0 mm 0 W/m2
06:05 -8.6 °C -10.3 °C 34462.7 hPa NE 5.1 km/h 25.9 km/h 82 % 0 mm 0 W/m2
06:10 -8.6 °C -10.2 °C 34462.7 hPa NE 7.7 km/h 25.9 km/h 83 % 0 mm 0 W/m2
06:15 -8.6 °C -10.2 °C 34462.7 hPa NE 5.1 km/h 23.3 km/h 83 % 0 mm 0 W/m2
06:20 -8.6 °C -10.1 °C 34462.7 hPa NNE 2.6 km/h 31.1 km/h 84 % 0 mm 0 W/m2
06:25 -8.6 °C -10 °C 34462.7 hPa NE 7.7 km/h 31.1 km/h 85 % 0 mm 5 W/m2
06:30 -8.6 °C -10 °C 34462.7 hPa North 2.6 km/h 23.3 km/h 85 % 0 mm 7 W/m2
06:35 -8.6 °C -9.9 °C 34476.3 hPa NNE 2.6 km/h 23.3 km/h 86 % 0 mm 9 W/m2
06:40 -8.6 °C -9.9 °C 34462.7 hPa NE 5.1 km/h 23.3 km/h 86 % 0 mm 12 W/m2
06:45 -8.6 °C -9.9 °C 34476.3 hPa East 2.6 km/h 25.9 km/h 86 % 0 mm 16 W/m2
06:50 -8.6 °C -9.8 °C 34462.7 hPa NNE 7.7 km/h 25.9 km/h 87 % 0 mm 18 W/m2
06:55 -8.5 °C -9.7 °C 34462.7 hPa ENE 15.6 km/h 23.3 km/h 87 % 0 mm 21 W/m2
07:00 -8.5 °C -9.7 °C 34462.7 hPa North 2.6 km/h 23.3 km/h 87 % 0 mm 25 W/m2
07:05 -8.5 °C -9.7 °C 34462.7 hPa ESE 5.1 km/h 18.2 km/h 87 % 0 mm 28 W/m2
07:15 -8.4 °C -9.6 °C 34462.7 hPa NE 10.3 km/h 23.3 km/h 87 % 0 mm 33 W/m2
07:20 -8.4 °C -9.6 °C 34476.3 hPa North 15.6 km/h 23.3 km/h 87 % 0 mm 37 W/m2
07:25 -8.4 °C -9.6 °C 34476.3 hPa NE 7.7 km/h 23.3 km/h 87 % 0 mm 40 W/m2
07:30 -8.3 °C -9.6 °C 34476.3 hPa NE 7.7 km/h 23.3 km/h 87 % 0 mm 42 W/m2
07:35 -8.3 °C -9.5 °C 34476.3 hPa Calm   23.3 km/h 87 % 0 mm 46 W/m2
07:40 -8.2 °C -9.4 °C 34476.3 hPa NNE 7.7 km/h 23.3 km/h 87 % 0 mm 49 W/m2
07:45 -8.2 °C -9.4 °C 34476.3 hPa NE 15.6 km/h 23.3 km/h 87 % 0 mm 53 W/m2
07:50 -8.2 °C -9.4 °C 34476.3 hPa Calm   23.3 km/h 87 % 0 mm 56 W/m2
07:55 -8.1 °C -9.3 °C 34486.4 hPa NNE 10.3 km/h 23.3 km/h 87 % 0 mm 60 W/m2
08:00 -8 °C -9.3 °C 34486.4 hPa NNW 10.3 km/h 23.3 km/h 86 % 0 mm 155 W/m2
08:05 -7.9 °C -9.3 °C 34486.4 hPa Calm   31.1 km/h 86 % 0 mm 171 W/m2
08:10 -7.9 °C -9.2 °C 34486.4 hPa NNE 10.3 km/h 31.1 km/h 86 % 0 mm 188 W/m2
08:15 -7.8 °C -9.2 °C 34486.4 hPa ENE 7.7 km/h 25.9 km/h 85 % 0 mm 207 W/m2
08:20 -7.7 °C -9.2 °C 34486.4 hPa North 15.6 km/h 25.9 km/h 85 % 0 mm 216 W/m2
08:25 -7.6 °C -9.1 °C 34486.4 hPa East 7.7 km/h 23.3 km/h 84 % 0 mm 230 W/m2
08:30 -7.6 °C -9.2 °C 34486.4 hPa Calm   25.9 km/h 83 % 0 mm 221 W/m2
08:35 -7.4 °C -9.1 °C 34486.4 hPa NE 7.7 km/h 28.5 km/h 83 % 0 mm 244 W/m2
08:40 -7.3 °C -9.1 °C 34486.4 hPa NNE 2.6 km/h 28.5 km/h 82 % 0 mm 283 W/m2
08:45 -7.2 °C -9 °C 34496.6 hPa NE 10.3 km/h 20.8 km/h 81 % 0 mm 144 W/m2
08:50 -7.1 °C -9 °C 34496.6 hPa ENE 15.6 km/h 15.6 km/h 81 % 0 mm 139 W/m2
08:55 -7.1 °C -9.2 °C 34496.6 hPa ESE 18.2 km/h 20.8 km/h 79 % 0 mm 144 W/m2
09:00 -7.1 °C -9.2 °C 34510.1 hPa East 7.7 km/h 25.9 km/h 79 % 0 mm 178 W/m2
09:05 -7 °C -9.1 °C 34510.1 hPa East 2.6 km/h 25.9 km/h 79 % 0 mm 179 W/m2
09:10 -6.8 °C -8.9 °C 34510.1 hPa NE 5.1 km/h 15.6 km/h 79 % 0 mm 339 W/m2
09:15 -6.6 °C -8.9 °C 34510.1 hPa ESE 10.3 km/h 18.2 km/h 77 % 0 mm 172 W/m2
09:20 -6.7 °C -9.1 °C 34520.3 hPa NE 7.7 km/h 25.9 km/h 76 % 0 mm 214 W/m2
09:25 -6.6 °C -9 °C 34510.1 hPa NE 10.3 km/h 25.9 km/h 76 % 0 mm 378 W/m2
09:30 -6.3 °C -8.8 °C 34510.1 hPa NE 12.9 km/h 23.3 km/h 75 % 0 mm 446 W/m2
09:35 -6.1 °C -8.7 °C 34496.6 hPa East 20.8 km/h 23.3 km/h 74 % 0 mm 438 W/m2
09:40 -5.9 °C -8.8 °C 34496.6 hPa East 7.7 km/h 23.3 km/h 72 % 0 mm 438 W/m2
09:45 -5.7 °C -8.6 °C 34496.6 hPa ENE 10.3 km/h 23.3 km/h 72 % 0 mm 455 W/m2
09:50 -5.4 °C -8.7 °C 34496.6 hPa East 12.9 km/h 23.3 km/h 70 % 0 mm 478 W/m2
09:55 -5.5 °C -8.8 °C 34510.1 hPa ESE 7.7 km/h 23.3 km/h 69 % 0 mm 223 W/m2
10:00 -5.5 °C -8.7 °C 34510.1 hPa ESE 7.7 km/h 20.8 km/h 70 % 0 mm 552 W/m2
10:05 -5.1 °C -8.6 °C 34510.1 hPa ESE 7.7 km/h 25.9 km/h 68 % 0 mm 269 W/m2
10:10 -5.2 °C -8.8 °C 34510.1 hPa ESE 7.7 km/h 25.9 km/h 67 % 0 mm 587 W/m2
10:15 -4.9 °C -8.4 °C 34510.1 hPa East 18.2 km/h 25.9 km/h 67 % 0 mm 367 W/m2
10:20 -4.7 °C -8.4 °C 34496.6 hPa East 15.6 km/h 23.3 km/h 66 % 0 mm 566 W/m2
10:25 -4.3 °C -8.4 °C 34496.6 hPa Calm   20.8 km/h 63 % 0 mm 554 W/m2
10:30 -4.1 °C -8.8 °C 34496.6 hPa East 7.7 km/h 23.3 km/h 59 % 0 mm 578 W/m2
10:35 -3.8 °C -8.9 °C 34496.6 hPa ESE 5.1 km/h 23.3 km/h 57 % 0 mm 573 W/m2
10:40 -3.7 °C -8.9 °C 34496.6 hPa ESE 2.6 km/h 23.3 km/h 56 % 0 mm 598 W/m2
10:45 -3.6 °C -9 °C 34486.4 hPa SE 10.3 km/h 23.3 km/h 55 % 0 mm 608 W/m2
10:50 -3.4 °C -8.5 °C 34486.4 hPa East 10.3 km/h 23.3 km/h 57 % 0 mm 619 W/m2
10:55 -3.3 °C -8.9 °C 34486.4 hPa ESE 15.6 km/h 23.3 km/h 54 % 0 mm 631 W/m2
11:00 -3.2 °C -8.6 °C 34486.4 hPa ESE 7.7 km/h 18.2 km/h 55 % 0 mm 642 W/m2
11:05 -3.3 °C -8.8 °C 34476.3 hPa ENE 2.6 km/h 15.6 km/h 54 % 0 mm 654 W/m2
11:10 -3.1 °C -8.6 °C 34476.3 hPa ESE 5.1 km/h 15.6 km/h 55 % 0 mm 666 W/m2
11:15 -3.2 °C -8.6 °C 34476.3 hPa East 2.6 km/h 15.6 km/h 55 % 0 mm 679 W/m2
11:20 -3.2 °C -9 °C 34462.7 hPa NNE 5.1 km/h 12.9 km/h 53 % 0 mm 687 W/m2
11:25 -3 °C -8.8 °C 34462.7 hPa SE 10.3 km/h 20.8 km/h 53 % 0 mm 696 W/m2
11:30 -2.8 °C -8.6 °C 34462.7 hPa ENE 2.6 km/h 20.8 km/h 53 % 0 mm 705 W/m2
11:35 -2.9 °C -8.7 °C 34462.7 hPa South 5.1 km/h 12.9 km/h 53 % 0 mm 715 W/m2
11:40 -2.7 °C -8.4 °C 34462.7 hPa NE 10.3 km/h 18.2 km/h 53 % 0 mm 724 W/m2
11:45 -2.6 °C -8.6 °C 34462.7 hPa NNE 18.2 km/h 25.9 km/h 52 % 0 mm 735 W/m2
11:50 -2.8 °C -8.6 °C 34452.6 hPa Calm   25.9 km/h 53 % 0 mm 745 W/m2
11:55 -2.4 °C -8.4 °C 34462.7 hPa ENE 7.7 km/h 23.3 km/h 52 % 0 mm 752 W/m2
12:00 -2.5 °C -8.6 °C 34452.6 hPa North 20.8 km/h 28.5 km/h 51 % 0 mm 765 W/m2
12:05 -2.4 °C -8.4 °C 34452.6 hPa ENE 20.8 km/h 28.5 km/h 52 % 0 mm 766 W/m2
12:10 -2.3 °C -8.3 °C 34452.6 hPa NNW 15.6 km/h 28.5 km/h 52 % 0 mm 779 W/m2
12:15 -2.1 °C -8.6 °C 34452.6 hPa NE 7.7 km/h 28.5 km/h 49 % 0 mm 786 W/m2
12:20 -1.9 °C -8.2 °C 34442.4 hPa Calm   25.9 km/h 50 % 0 mm 796 W/m2
12:25 -1.8 °C -8.6 °C 34442.4 hPa East 12.9 km/h 25.9 km/h 48 % 0 mm 805 W/m2
12:30 -1.9 °C -8.6 °C 34442.4 hPa NE 7.7 km/h 18.2 km/h 48 % 0 mm 812 W/m2
12:40 -1.6 °C -8.6 °C 34428.8 hPa NNE 15.6 km/h 28.5 km/h 47 % 0 mm 826 W/m2
12:45 -1.7 °C -8.2 °C 34428.8 hPa NE 7.7 km/h 23.3 km/h 49 % 0 mm 823 W/m2
12:50 -1.4 °C -8.6 °C 34418.7 hPa North 15.6 km/h 23.3 km/h 46 % 0 mm 745 W/m2
12:55 -1.5 °C -8.2 °C 34418.7 hPa ENE 25.9 km/h 25.9 km/h 48 % 0 mm 828 W/m2
13:00 -1.2 °C -8.2 °C 34418.7 hPa ENE 2.6 km/h 28.5 km/h 47 % 0 mm 842 W/m2
13:05 -1.2 °C -8.2 °C 34418.7 hPa NNW 18.2 km/h 28.5 km/h 47 % 0 mm 846 W/m2
13:10 -1.1 °C -8.1 °C 34418.7 hPa North 12.9 km/h 28.5 km/h 47 % 0 mm 851 W/m2
13:15 -0.9 °C -8.1 °C 34418.7 hPa NE 25.9 km/h 25.9 km/h 46 % 0 mm 840 W/m2
13:20 -0.9 °C -8.3 °C 34405.1 hPa NNW 5.1 km/h 25.9 km/h 45 % 0 mm 861 W/m2
13:25 -0.9 °C -8.1 °C 34405.1 hPa ENE 20.8 km/h 25.9 km/h 46 % 0 mm 861 W/m2
13:35 -0.4 °C -7.9 °C 34405.1 hPa East 15.6 km/h 28.5 km/h 45 % 0 mm 874 W/m2
13:40 -0.7 °C -8.2 °C 34405.1 hPa North 5.1 km/h 28.5 km/h 44 % 0 mm 863 W/m2
13:45 -0.4 °C -7.8 °C 34395 hPa ENE 12.9 km/h 28.5 km/h 45 % 0 mm 738 W/m2
13:50 -0.9 °C -8.3 °C 34395 hPa NE 12.9 km/h 25.9 km/h 45 % 0 mm 853 W/m2
13:55 -0.7 °C -8.2 °C 34395 hPa ENE 15.6 km/h 28.5 km/h 44 % 0 mm 875 W/m2
14:00 -0.6 °C -7.8 °C 34395 hPa NE 20.8 km/h 28.5 km/h 46 % 0 mm 888 W/m2
14:05 -0.1 °C -7.7 °C 34395 hPa NNE 20.8 km/h 23.3 km/h 44 % 0 mm 773 W/m2
14:10 -0.3 °C -8.2 °C 34395 hPa NNE 15.6 km/h 28.5 km/h 43 % 0 mm 867 W/m2
14:15 -0.4 °C -8.2 °C 34395 hPa North 10.3 km/h 28.5 km/h 43 % 0 mm 837 W/m2
14:20 -0.2 °C -8.3 °C 34395 hPa NE 20.8 km/h 31.1 km/h 42 % 0 mm 840 W/m2
14:25 -0.2 °C -8.4 °C 34395 hPa NE 15.6 km/h 31.1 km/h 41 % 0 mm 867 W/m2
14:30 -0.4 °C -8.2 °C 34384.8 hPa North 18.2 km/h 25.9 km/h 43 % 0 mm 863 W/m2
14:35 -0.4 °C -8.4 °C 34384.8 hPa NE 15.6 km/h 31.1 km/h 42 % 0 mm 861 W/m2
14:40 -0.2 °C -8.2 °C 34395 hPa NE 18.2 km/h 31.1 km/h 42 % 0 mm 807 W/m2
14:45 -0.2 °C -8 °C 34384.8 hPa NE 23.3 km/h 31.1 km/h 43 % 0 mm 786 W/m2
14:50 0.1 °C -8.3 °C 34395 hPa NE 20.8 km/h 31.1 km/h 41 % 0 mm 812 W/m2
14:55 0 °C -7.7 °C 34384.8 hPa NE 15.6 km/h 31.1 km/h 44 % 0 mm 777 W/m2
15:00 0.1 °C -7.9 °C 34384.8 hPa ENE 23.3 km/h 28.5 km/h 42 % 0 mm 779 W/m2
15:05 -0.1 °C -8.4 °C 34384.8 hPa NE 10.3 km/h 31.1 km/h 41 % 0 mm 694 W/m2
15:10 -0.1 °C -8.4 °C 34384.8 hPa ENE 7.7 km/h 31.1 km/h 41 % 0 mm 867 W/m2
15:15 0.1 °C -8.4 °C 34384.8 hPa NNW 7.7 km/h 28.5 km/h 40 % 0 mm 798 W/m2
15:20 0.3 °C -7.8 °C 34384.8 hPa North 7.7 km/h 25.9 km/h 42 % 0 mm 710 W/m2
15:25 -0.2 °C -8.4 °C 34384.8 hPa NE 7.7 km/h 23.3 km/h 41 % 0 mm 745 W/m2
15:30 0.1 °C -8.4 °C 34384.8 hPa NE 15.6 km/h 33.6 km/h 40 % 0 mm 624 W/m2
15:35 -0.1 °C -8.4 °C 34384.8 hPa NW 2.6 km/h 33.6 km/h 41 % 0 mm 612 W/m2
15:40 0 °C -8.5 °C 34384.8 hPa NNW 5.1 km/h 28.5 km/h 40 % 0 mm 900 W/m2
15:45 0.2 °C -8.3 °C 34384.8 hPa NNE 2.6 km/h 28.5 km/h 40 % 0 mm 578 W/m2
15:50 0.1 °C -8.2 °C 34384.8 hPa East 20.8 km/h 28.5 km/h 41 % 0 mm 503 W/m2
15:55 -0.1 °C -8.1 °C 34384.8 hPa North 10.3 km/h 23.3 km/h 42 % 0 mm 666 W/m2
16:00 -0.1 °C -8.5 °C 34384.8 hPa ESE 7.7 km/h 23.3 km/h 40 % 0 mm 504 W/m2
16:05 -0.2 °C -8.4 °C 34384.8 hPa East 18.2 km/h 25.9 km/h 41 % 0 mm 786 W/m2
16:10 0.1 °C -8.6 °C 34384.8 hPa ENE 2.6 km/h 25.9 km/h 39 % 0 mm 784 W/m2
16:15 0.4 °C -8.3 °C 34384.8 hPa ENE 2.6 km/h 25.9 km/h 39 % 0 mm 673 W/m2
16:20 0.2 °C -8.7 °C 34384.8 hPa Calm   23.3 km/h 38 % 0 mm 563 W/m2
16:25 0.1 °C -8.2 °C 34384.8 hPa NE 12.9 km/h 23.3 km/h 41 % 0 mm 580 W/m2
16:30 0.2 °C -7.9 °C 34384.8 hPa Calm   23.3 km/h 42 % 0 mm 536 W/m2
16:35 0.1 °C -8.2 °C 34371.3 hPa NNE 2.6 km/h 23.3 km/h 41 % 0 mm 643 W/m2
16:40 0.1 °C -8.6 °C 34371.3 hPa East 10.3 km/h 23.3 km/h 39 % 0 mm 642 W/m2
16:45 0.2 °C -8.8 °C 34371.3 hPa East 7.7 km/h 18.2 km/h 38 % 0 mm 758 W/m2
16:50 0.7 °C -8.4 °C 34371.3 hPa East 25.9 km/h 28.5 km/h 38 % 0 mm 851 W/m2
17:00 0.4 °C -7.9 °C 34371.3 hPa NNE 12.9 km/h 25.9 km/h 41 % 0 mm 679 W/m2
17:05 0.3 °C -8.7 °C 34371.3 hPa North 7.7 km/h 25.9 km/h 38 % 0 mm 517 W/m2
17:10 0.3 °C -8.7 °C 34371.3 hPa NNW 12.9 km/h 20.8 km/h 38 % 0 mm 605 W/m2
17:15 0.3 °C -8.4 °C 34361.1 hPa West 5.1 km/h 20.8 km/h 39 % 0 mm 330 W/m2
17:20 -0.1 °C -8.7 °C 34361.1 hPa ENE 12.9 km/h 15.6 km/h 39 % 0 mm 294 W/m2
17:25 -0.2 °C -8.4 °C 34361.1 hPa NNE 2.6 km/h 15.6 km/h 41 % 0 mm 290 W/m2
17:30 -0.3 °C -8.8 °C 34361.1 hPa NNW 5.1 km/h 15.6 km/h 40 % 0 mm 374 W/m2
17:35 -0.3 °C -8.6 °C 34361.1 hPa NNE 12.9 km/h 23.3 km/h 41 % 0 mm 406 W/m2
17:40 -0.2 °C -8.2 °C 34361.1 hPa East 5.1 km/h 23.3 km/h 42 % 0 mm 513 W/m2
17:45 0.1 °C -8.4 °C 34361.1 hPa NE 12.9 km/h 20.8 km/h 40 % 0 mm 461 W/m2
17:50 -0.2 °C -8.6 °C 34361.1 hPa NNW 7.7 km/h 20.8 km/h 40 % 0 mm 301 W/m2
17:55 -0.1 °C -8.3 °C 34347.6 hPa ENE 15.6 km/h 20.8 km/h 41 % 0 mm 417 W/m2
18:00 -0.3 °C -8.6 °C 34347.6 hPa ENE 7.7 km/h 25.9 km/h 41 % 0 mm 297 W/m2
18:05 -0.2 °C -8.4 °C 34347.6 hPa East 15.6 km/h 25.9 km/h 41 % 0 mm 373 W/m2
18:10 -0.1 °C -8.1 °C 34347.6 hPa East 15.6 km/h 20.8 km/h 42 % 0 mm 371 W/m2
18:15 -0.1 °C -8.3 °C 34347.6 hPa NE 15.6 km/h 20.8 km/h 41 % 0 mm 422 W/m2
18:20 0.1 °C -8.4 °C 34347.6 hPa ENE 7.7 km/h 20.8 km/h 40 % 0 mm 592 W/m2
18:25 0.3 °C -8.2 °C 34337.4 hPa ENE 15.6 km/h 23.3 km/h 40 % 0 mm 478 W/m2
18:30 0.3 °C -8.2 °C 34337.4 hPa SE 12.9 km/h 23.3 km/h 40 % 0 mm 540 W/m2
18:35 -0.1 °C -8.7 °C 34337.4 hPa ENE 10.3 km/h 15.6 km/h 39 % 0 mm 496 W/m2
18:40 0.1 °C -8.4 °C 34337.4 hPa ENE 12.9 km/h 28.5 km/h 40 % 0 mm 534 W/m2
18:45 0.2 °C -8.6 °C 34337.4 hPa ENE 5.1 km/h 28.5 km/h 39 % 0 mm 267 W/m2
18:50 -0.2 °C -8.7 °C 34337.4 hPa ESE 7.7 km/h 18.2 km/h 40 % 0 mm 309 W/m2
18:55 -0.2 °C -8.5 °C 34337.4 hPa East 5.1 km/h 18.2 km/h 41 % 0 mm 306 W/m2
19:00 -0.3 °C -8.4 °C 34327.3 hPa ENE 7.7 km/h 15.6 km/h 42 % 0 mm 297 W/m2
19:05 -0.3 °C -8.6 °C 34337.4 hPa ESE 7.7 km/h 20.8 km/h 41 % 0 mm 438 W/m2
19:10 -0.2 °C -8.7 °C 34327.3 hPa SE 5.1 km/h 20.8 km/h 40 % 0 mm 422 W/m2
19:15 -0.2 °C -8.2 °C 34327.3 hPa Calm   18.2 km/h 42 % 0 mm 388 W/m2
19:20 -0.1 °C -8.6 °C 34327.3 hPa ENE 10.3 km/h 18.2 km/h 40 % 0 mm 355 W/m2
19:25 -0.1 °C -8.4 °C 34327.3 hPa ENE 5.1 km/h 18.2 km/h 41 % 0 mm 334 W/m2
19:30 -0.3 °C -8.2 °C 34327.3 hPa North 2.6 km/h 18.2 km/h 43 % 0 mm 264 W/m2
19:35 -0.4 °C -8.4 °C 34327.3 hPa East 12.9 km/h 20.8 km/h 42 % 0 mm 288 W/m2
19:40 -0.4 °C -8.4 °C 34327.3 hPa East 15.6 km/h 20.8 km/h 42 % 0 mm 264 W/m2
19:45 -0.5 °C -8.6 °C 34327.3 hPa Calm   20.8 km/h 42 % 0 mm 241 W/m2
19:50 -0.6 °C -8.2 °C 34327.3 hPa NE 5.1 km/h 12.9 km/h 44 % 0 mm 206 W/m2
19:55 -0.7 °C -8.7 °C 34327.3 hPa Calm   12.9 km/h 42 % 0 mm 185 W/m2
20:00 -0.7 °C -8.5 °C 34327.3 hPa East 5.1 km/h 10.3 km/h 43 % 0 mm 160 W/m2
20:05 -0.9 °C -7.9 °C 34327.3 hPa WNW 10.3 km/h 15.6 km/h 47 % 0 mm 114 W/m2
20:10 -1.4 °C -7.7 °C 34327.3 hPa WNW 2.6 km/h 15.6 km/h 51 % 0 mm 141 W/m2
20:15 -1.7 °C -7.3 °C 34327.3 hPa Calm   10.3 km/h 54 % 0 mm 155 W/m2
20:20 -1.8 °C -7.6 °C 34327.3 hPa Calm   12.9 km/h 53 % 0 mm 144 W/m2
20:25 -1.9 °C -7.2 °C 34313.7 hPa Calm   12.9 km/h 56 % 0 mm 128 W/m2
20:30 -1.9 °C -7 °C 34327.3 hPa Calm   7.7 km/h 58 % 0 mm 109 W/m2
20:35 -2.1 °C -7.2 °C 34327.3 hPa Calm   7.7 km/h 57 % 0 mm 102 W/m2
20:40 -1.8 °C -8.1 °C 34313.7 hPa ENE 2.6 km/h 12.9 km/h 51 % 0 mm 83 W/m2
20:45 -1.8 °C -8.3 °C 34313.7 hPa East 5.1 km/h 18.2 km/h 49 % 0 mm 47 W/m2
20:50 -1.7 °C -8.2 °C 34313.7 hPa Calm   18.2 km/h 49 % 0 mm 42 W/m2
20:55 -1.8 °C -8 °C 34313.7 hPa ENE 2.6 km/h 12.9 km/h 51 % 0 mm 39 W/m2
21:00 -1.8 °C -8.2 °C 34327.3 hPa Calm   7.7 km/h 50 % 0 mm 35 W/m2
21:05 -1.9 °C -8.1 °C 34327.3 hPa Calm   7.7 km/h 51 % 0 mm 33 W/m2
21:10 -2.1 °C -8.1 °C 34327.3 hPa Calm   10.3 km/h 52 % 0 mm 30 W/m2
21:15 -2.3 °C -8.1 °C 34327.3 hPa Calm   10.3 km/h 53 % 0 mm 28 W/m2
21:20 -2.4 °C -8.1 °C 34327.3 hPa Calm   12.9 km/h 54 % 0 mm 25 W/m2
21:25 -2.5 °C -7.9 °C 34327.3 hPa North 5.1 km/h 12.9 km/h 55 % 0 mm 23 W/m2
21:30 -2.7 °C -8 °C 34327.3 hPa NNE 2.6 km/h 10.3 km/h 56 % 0 mm 19 W/m2
21:35 -2.9 °C -8 °C 34327.3 hPa NNW 7.7 km/h 20.8 km/h 57 % 0 mm 18 W/m2
21:40 -3.2 °C -7.7 °C 34327.3 hPa NNW 2.6 km/h 25.9 km/h 61 % 0 mm 16 W/m2
21:45 -3.3 °C -7.6 °C 34337.4 hPa ENE 10.3 km/h 25.9 km/h 63 % 0 mm 14 W/m2
21:50 -3.3 °C -7.6 °C 34337.4 hPa North 5.1 km/h 23.3 km/h 63 % 0 mm 11 W/m2
21:55 -3.3 °C -7.6 °C 34337.4 hPa NNE 2.6 km/h 23.3 km/h 63 % 0 mm 9 W/m2
22:00 -3.4 °C -7.7 °C 34337.4 hPa ENE 25.9 km/h 25.9 km/h 62 % 0 mm 7 W/m2
22:05 -3.4 °C -7.8 °C 34337.4 hPa NNE 12.9 km/h 25.9 km/h 62 % 0 mm 5 W/m2
22:10 -3.5 °C -7.9 °C 34337.4 hPa NNE 5.1 km/h 25.9 km/h 62 % 0 mm 0 W/m2
22:15 -3.6 °C -8.1 °C 34337.4 hPa NNE 10.3 km/h 28.5 km/h 61 % 0 mm 0 W/m2
22:20 -3.7 °C -8.1 °C 34337.4 hPa NNE 10.3 km/h 28.5 km/h 62 % 0 mm 0 W/m2
22:25 -3.9 °C -8.2 °C 34337.4 hPa NNE 7.7 km/h 23.3 km/h 62 % 0 mm 0 W/m2
22:30 -4.1 °C -8.2 °C 34347.6 hPa NE 5.1 km/h 25.9 km/h 63 % 0 mm 0 W/m2
22:35 -4.1 °C -8.3 °C 34347.6 hPa NE 7.7 km/h 25.9 km/h 63 % 0 mm 0 W/m2
22:40 -4.3 °C -8.4 °C 34347.6 hPa NNE 5.1 km/h 28.5 km/h 63 % 0 mm 0 W/m2
22:45 -4.3 °C -8.4 °C 34361.1 hPa NE 20.8 km/h 28.5 km/h 63 % 0 mm 0 W/m2
22:50 -4.4 °C -8.6 °C 34347.6 hPa NNE 15.6 km/h 20.8 km/h 63 % 0 mm 0 W/m2
22:55 -4.6 °C -8.7 °C 34361.1 hPa North 15.6 km/h 23.3 km/h 63 % 0 mm 0 W/m2
23:00 -4.6 °C -8.8 °C 34361.1 hPa Calm   23.3 km/h 62 % 0 mm 0 W/m2
23:05 -4.6 °C -9 °C 34361.1 hPa North 5.1 km/h 20.8 km/h 61 % 0 mm 0 W/m2
23:10 -4.7 °C -9 °C 34361.1 hPa NNE 10.3 km/h 18.2 km/h 62 % 0 mm 0 W/m2
23:20 -4.9 °C -9.2 °C 34361.1 hPa Calm   23.3 km/h 62 % 0 mm 0 W/m2
23:25 -5 °C -9.3 °C 34361.1 hPa NE 10.3 km/h 23.3 km/h 62 % 0 mm 0 W/m2
23:30 -5.1 °C -9.2 °C 34361.1 hPa NNE 5.1 km/h 20.8 km/h 63 % 0 mm 0 W/m2
23:35 -5.2 °C -9.1 °C 34361.1 hPa NNE 10.3 km/h 20.8 km/h 64 % 0 mm 0 W/m2
23:40 -5.2 °C -9.3 °C 34361.1 hPa NNE 7.7 km/h 20.8 km/h 63 % 0 mm 0 W/m2
23:45 -5.2 °C -9.3 °C 34361.1 hPa North 10.3 km/h 23.3 km/h 63 % 0 mm 0 W/m2
23:50 -5.2 °C -9.3 °C 34361.1 hPa NNE 10.3 km/h 23.3 km/h 63 % 0 mm 0 W/m2
23:55 -5.3 °C -9.3 °C 34361.1 hPa North 7.7 km/h 18.2 km/h 64 % 0 mm 0 W/m2
Avec l'autorisation de Weather Underground - 1.75 mb